Location: Berbisdorf
(50.7638°N, 12.9442°E)
Time: 22:48:02
(UTC+00:00)

CZ-4C R/B - Pass Details

Date: 07 June 2020
Orbit: 634 x 1367 km, 63.4° (Epoch: 05 July)

Event Time Altitude Azimuth Distance (km) Brightness Sun altitude
Exits shadow 01:16:44 - 260° (W) 3,060 4.7 -11.1°
Reaches altitude 10° 01:18:44 10° 268° (W) 2,371 4.2 -10.9°
Maximum altitude 01:23:49 37° 336° (NNW) 1,370 3.6 -10.5°
Drops below altitude 10° 01:29:53 10° 42° (NE) 2,840 6.5 -10.0°
Sets 01:33:01 0° 51° (NE) 3,923 7.3 -9.7°
